Location: Aldenham
(51.6667°N, 0.3500°W)
Time: 00:48:14
(UTC+00:00)

A-11 Canister half - Pass Details

Date: 25 February 2026
Orbit: 1512 x 1687 km, 47.2° (Epoch: 8 March)

Event Time Altitude Azimuth Distance (km) Brightness Sun altitude
Rises 00:19:35 0° 283° (WNW) 4,929 11.8 -47.5°
Enters shadow 00:22:34 - 279° (W) 4,024 11.2 -47.5°
Reaches altitude 10° 00:22:54 10° 278° (W) 3,925 - -47.5°
Maximum altitude 00:32:22 49° 208° (SSW) 2,012 - -47.3°
Drops below altitude 10° 00:41:32 10° 137° (SE) 3,793 - -47.1°
Sets 00:44:41 0° 132° (SE) 4,752 - -47.0°
